Simultaneous Nadir Overpasses (SNOs) Predictions

Prediction of SNOs between AQUA and METOP-A Satellite Orbit:

Table of predicted SNOs for the next 14.0 days since TLE Epoch: 5/25/2012
Index Date (AQUA) Time (AQUA) AQUA Lat,Lon Date (METOP-A) Time (METOP-A) METOP-A Lat,Lon Distance(km) Time Diff (sec)
1 05/26/2012 22:12:48 -73.82, 21.14 05/26/2012 22:12:23 -73.82, 21.12 0.94 25
2 05/26/2012 23:02:17 73.91,-171.42 05/26/2012 23:03:01 73.90,-171.34 2.85 44
3 05/29/2012 17:47:06 -73.81, 87.60 05/29/2012 17:46:45 -73.83, 87.57 2.94 21
4 05/29/2012 18:36:35 73.90,-104.97 05/29/2012 18:37:23 73.91,-104.91 2.26 48
5 06/01/2012 13:21:28 -73.82, 153.99 06/01/2012 13:21:07 -73.84, 153.99 2.50 21
6 06/01/2012 14:10:57 73.91, -38.58 06/01/2012 14:11:45 73.91, -38.50 2.59 48
7 06/04/2012 08:55:53 -73.85,-139.70 06/04/2012 08:55:28 -73.83,-139.61 3.16 25
8 06/04/2012 09:45:21 73.89, 27.84 06/04/2012 09:46:06 73.90, 27.88 1.51 45
9 06/07/2012 04:30:21 -73.80, -73.22 06/07/2012 04:29:50 -73.82, -73.23 1.87 31
10 06/07/2012 05:19:50 73.90, 94.21 06/07/2012 05:20:28 73.88, 94.25 2.44 38




NCC Satellite Simultaneous Nadir Overpasses (SNOs) Prediction Service
